owner,sensor,date,latitude,longitude,mass_concentration_of_chlorophyll_in_sea_water,qcFlag 
SCCF RECON,ioos:station:SCCF:56:1,2019-10-01T04:00:00Z,26.4645,-82.1044,3.97,11111222 
SCCF RECON,ioos:station:SCCF:56:1,2019-10-01T05:00:00Z,26.4645,-82.1044,4.14,11111222 
SCCF RECON,ioos:station:SCCF:56:1,2019-10-01T06:00:00Z,26.4645,-82.1044,3.99,11111222 
SCCF RECON,ioos:station:SCCF:56:1,2019-10-01T07:00:00Z,26.4645,-82.1044,4.12,11111222 
SCCF RECON,ioos:station:SCCF:56:1,2019-10-01T08:00:00Z,26.4645,-82.1044,4.01,11111222 
SCCF RECON,ioos:station:SCCF:56:1,2019-10-01T09:00:00Z,26.4645,-82.1044,3.84,11111222 
SCCF RECON,ioos:station:SCCF:56:1,2019-10-01T10:00:00Z,26.4645,-82.1044,3.25,11111222 
SCCF RECON,ioos:station:SCCF:56:1,2019-10-01T11:00:00Z,26.4645,-82.1044,3.33,11111222 
SCCF RECON,ioos:station:SCCF:56:1,2019-10-01T12:00:00Z,26.4645,-82.1044,2.88,11111222 
SCCF RECON,ioos:station:SCCF:56:1,2019-10-01T13:00:00Z,26.4645,-82.1044,3.21,11111222 
SCCF RECON,ioos:station:SCCF:56:1,2019-10-01T14:00:00Z,26.4645,-82.1044,3.29,11111222 
SCCF RECON,ioos:station:SCCF:56:1,2019-10-01T15:00:00Z,26.4645,-82.1044,3.74,11111222 
SCCF RECON,ioos:station:SCCF:56:1,2019-10-01T16:00:00Z,26.4645,-82.1044,4.36,11111222 
SCCF RECON,ioos:station:SCCF:56:1,2019-10-01T17:00:00Z,26.4645,-82.1044,4.83,11111222 
SCCF RECON,ioos:station:SCCF:56:1,2019-10-01T18:00:00Z,26.4645,-82.1044,4.51,11111222 
SCCF RECON,ioos:station:SCCF:56:1,2019-10-01T19:00:00Z,26.4645,-82.1044,4.8,11111222 
SCCF RECON,ioos:station:SCCF:56:1,2019-10-01T20:00:00Z,26.4645,-82.1044,5.26,11111222 
SCCF RECON,ioos:station:SCCF:56:1,2019-10-01T21:00:00Z,26.4645,-82.1044,5.66,11111222 
SCCF RECON,ioos:station:SCCF:56:1,2019-10-01T22:00:00Z,26.4645,-82.1044,4.63,11111222 
SCCF RECON,ioos:station:SCCF:56:1,2019-10-01T23:00:00Z,26.4645,-82.1044,5.1,11111222 
SCCF RECON,ioos:station:SCCF:56:1,2019-10-02T04:00:00Z,26.4645,-82.1044,3.58,11111222 
SCCF RECON,ioos:station:SCCF:56:1,2019-10-02T05:00:00Z,26.4645,-82.1044,4.71,11111222 
SCCF RECON,ioos:station:SCCF:56:1,2019-10-02T06:00:00Z,26.4645,-82.1044,4.12,11111222 
SCCF RECON,ioos:station:SCCF:56:1,2019-10-02T07:00:00Z,26.4645,-82.1044,4.2,11111222 
SCCF RECON,ioos:station:SCCF:56:1,2019-10-02T08:00:00Z,26.4645,-82.1044,3.78,11111222 
SCCF RECON,ioos:station:SCCF:56:1,2019-10-02T09:00:00Z,26.4645,-82.1044,4.0,11111222 
SCCF RECON,ioos:station:SCCF:56:1,2019-10-02T10:00:00Z,26.4645,-82.1044,3.47,11111222 
SCCF RECON,ioos:station:SCCF:56:1,2019-10-02T11:00:00Z,26.4645,-82.1044,3.34,11111222 
SCCF RECON,ioos:station:SCCF:56:1,2019-10-02T12:00:00Z,26.4645,-82.1044,2.92,11111222 
SCCF RECON,ioos:station:SCCF:56:1,2019-10-02T13:00:00Z,26.4645,-82.1044,2.98,11111222 
SCCF RECON,ioos:station:SCCF:56:1,2019-10-02T14:00:00Z,26.4645,-82.1044,3.02,11111222 
SCCF RECON,ioos:station:SCCF:56:1,2019-10-02T15:00:00Z,26.4645,-82.1044,3.47,11111222 
SCCF RECON,ioos:station:SCCF:56:1,2019-10-02T16:00:00Z,26.4645,-82.1044,3.52,11111222 
SCCF RECON,ioos:station:SCCF:56:1,2019-10-02T17:00:00Z,26.4645,-82.1044,4.29,11111222 
SCCF RECON,ioos:station:SCCF:56:1,2019-10-02T18:00:00Z,26.4645,-82.1044,4.26,11111222 
SCCF RECON,ioos:station:SCCF:56:1,2019-10-02T19:00:00Z,26.4645,-82.1044,4.58,11111222 
SCCF RECON,ioos:station:SCCF:56:1,2019-10-02T20:00:00Z,26.4645,-82.1044,4.39,11111222 
SCCF RECON,ioos:station:SCCF:56:1,2019-10-02T21:00:00Z,26.4645,-82.1044,4.81,11111222 
SCCF RECON,ioos:station:SCCF:56:1,2019-10-02T22:00:00Z,26.4645,-82.1044,4.87,11111222 
SCCF RECON,ioos:station:SCCF:56:1,2019-10-02T23:00:00Z,26.4645,-82.1044,4.64,11111222 
SCCF RECON,ioos:station:SCCF:56:1,2019-10-03T04:00:00Z,26.4645,-82.1044,3.49,11111222 
SCCF RECON,ioos:station:SCCF:56:1,2019-10-03T05:00:00Z,26.4645,-82.1044,3.44,11111222 
SCCF RECON,ioos:station:SCCF:56:1,2019-10-03T06:00:00Z,26.4645,-82.1044,3.7,11111222 
SCCF RECON,ioos:station:SCCF:56:1,2019-10-03T07:00:00Z,26.4645,-82.1044,3.62,11111222 
SCCF RECON,ioos:station:SCCF:56:1,2019-10-03T08:00:00Z,26.4645,-82.1044,3.52,11111222 
SCCF RECON,ioos:station:SCCF:56:1,2019-10-03T09:00:00Z,26.4645,-82.1044,3.77,11111222 
SCCF RECON,ioos:station:SCCF:56:1,2019-10-03T10:00:00Z,26.4645,-82.1044,3.21,11111222 
SCCF RECON,ioos:station:SCCF:56:1,2019-10-03T11:00:00Z,26.4645,-82.1044,3.12,11111222 
SCCF RECON,ioos:station:SCCF:56:1,2019-10-03T12:00:00Z,26.4645,-82.1044,2.64,11111222 
SCCF RECON,ioos:station:SCCF:56:1,2019-10-03T13:00:00Z,26.4645,-82.1044,2.71,11111222 
SCCF RECON,ioos:station:SCCF:56:1,2019-10-03T14:00:00Z,26.4645,-82.1044,2.56,11111222 
SCCF RECON,ioos:station:SCCF:56:1,2019-10-03T15:00:00Z,26.4645,-82.1044,2.89,11111222 
SCCF RECON,ioos:station:SCCF:56:1,2019-10-03T16:00:00Z,26.4645,-82.1044,2.98,11111222 
SCCF RECON,ioos:station:SCCF:56:1,2019-10-03T17:00:00Z,26.4645,-82.1044,3.49,11111222 
SCCF RECON,ioos:station:SCCF:56:1,2019-10-03T18:00:00Z,26.4645,-82.1044,3.19,11111222 
SCCF RECON,ioos:station:SCCF:56:1,2019-10-03T19:00:00Z,26.4645,-82.1044,3.45,11111222 
SCCF RECON,ioos:station:SCCF:56:1,2019-10-03T20:00:00Z,26.4645,-82.1044,3.0,11111222 
SCCF RECON,ioos:station:SCCF:56:1,2019-10-03T21:00:00Z,26.4645,-82.1044,3.42,11111222 
SCCF RECON,ioos:station:SCCF:56:1,2019-10-03T22:00:00Z,26.4645,-82.1044,3.31,11111222 
SCCF RECON,ioos:station:SCCF:56:1,2019-10-03T23:00:00Z,26.4645,-82.1044,3.48,11111222 
SCCF RECON,ioos:station:SCCF:56:1,2019-10-04T04:00:00Z,26.4645,-82.1044,3.08,11111222 
SCCF RECON,ioos:station:SCCF:56:1,2019-10-04T05:00:00Z,26.4645,-82.1044,3.19,11111222 
SCCF RECON,ioos:station:SCCF:56:1,2019-10-04T06:00:00Z,26.4645,-82.1044,1.64,11113222 
SCCF RECON,ioos:station:SCCF:56:1,2019-10-04T07:00:00Z,26.4645,-82.1044,2.87,11111222 
SCCF RECON,ioos:station:SCCF:56:1,2019-10-04T08:00:00Z,26.4645,-82.1044,2.62,11111222 
SCCF RECON,ioos:station:SCCF:56:1,2019-10-04T09:00:00Z,26.4645,-82.1044,2.75,11111222 
SCCF RECON,ioos:station:SCCF:56:1,2019-10-04T10:00:00Z,26.4645,-82.1044,2.57,11111222 
SCCF RECON,ioos:station:SCCF:56:1,2019-10-04T11:00:00Z,26.4645,-82.1044,2.71,11111222 
SCCF RECON,ioos:station:SCCF:56:1,2019-10-04T12:00:00Z,26.4645,-82.1044,2.38,11111222 
SCCF RECON,ioos:station:SCCF:56:1,2019-10-04T13:00:00Z,26.4645,-82.1044,2.5,11111222 
SCCF RECON,ioos:station:SCCF:56:1,2019-10-04T14:00:00Z,26.4645,-82.1044,2.24,11111222 
SCCF RECON,ioos:station:SCCF:56:1,2019-10-04T15:00:00Z,26.4645,-82.1044,2.57,11111222 
SCCF RECON,ioos:station:SCCF:56:1,2019-10-04T16:00:00Z,26.4645,-82.1044,2.61,11111222 
SCCF RECON,ioos:station:SCCF:56:1,2019-10-04T17:00:00Z,26.4645,-82.1044,3.19,11111222 
SCCF RECON,ioos:station:SCCF:56:1,2019-10-04T18:00:00Z,26.4645,-82.1044,3.34,11111222 
SCCF RECON,ioos:station:SCCF:56:1,2019-10-04T19:00:00Z,26.4645,-82.1044,3.57,11111222 
SCCF RECON,ioos:station:SCCF:56:1,2019-10-04T20:00:00Z,26.4645,-82.1044,3.05,11111222 
SCCF RECON,ioos:station:SCCF:56:1,2019-10-04T21:00:00Z,26.4645,-82.1044,3.26,11111222 
SCCF RECON,ioos:station:SCCF:56:1,2019-10-04T22:00:00Z,26.4645,-82.1044,2.98,11111222 
SCCF RECON,ioos:station:SCCF:56:1,2019-10-04T23:00:00Z,26.4645,-82.1044,3.18,11111222 
SCCF RECON,ioos:station:SCCF:56:1,2019-10-05T04:00:00Z,26.4645,-82.1044,3.07,11111222 
SCCF RECON,ioos:station:SCCF:56:1,2019-10-05T05:00:00Z,26.4645,-82.1044,3.16,11111222 
SCCF RECON,ioos:station:SCCF:56:1,2019-10-05T06:00:00Z,26.4645,-82.1044,2.65,11111222 
SCCF RECON,ioos:station:SCCF:56:1,2019-10-05T07:00:00Z,26.4645,-82.1044,2.82,11111222 
SCCF RECON,ioos:station:SCCF:56:1,2019-10-05T08:00:00Z,26.4645,-82.1044,2.51,11111222 
SCCF RECON,ioos:station:SCCF:56:1,2019-10-05T09:00:00Z,26.4645,-82.1044,2.61,11111222 
SCCF RECON,ioos:station:SCCF:56:1,2019-10-05T10:00:00Z,26.4645,-82.1044,2.37,11111222 
SCCF RECON,ioos:station:SCCF:56:1,2019-10-05T11:00:00Z,26.4645,-82.1044,2.54,11111222 
SCCF RECON,ioos:station:SCCF:56:1,2019-10-05T12:00:00Z,26.4645,-82.1044,2.41,11111222 
SCCF RECON,ioos:station:SCCF:56:1,2019-10-05T13:00:00Z,26.4645,-82.1044,2.4,11111222 
SCCF RECON,ioos:station:SCCF:56:1,2019-10-05T14:00:00Z,26.4645,-82.1044,2.33,11111222 
SCCF RECON,ioos:station:SCCF:56:1,2019-10-05T15:00:00Z,26.4645,-82.1044,2.68,11111222 
SCCF RECON,ioos:station:SCCF:56:1,2019-10-05T16:00:00Z,26.4645,-82.1044,2.45,11111222 
SCCF RECON,ioos:station:SCCF:56:1,2019-10-05T17:00:00Z,26.4645,-82.1044,3.11,11111222 
SCCF RECON,ioos:station:SCCF:56:1,2019-10-05T18:00:00Z,26.4645,-82.1044,3.43,11111222 
SCCF RECON,ioos:station:SCCF:56:1,2019-10-05T19:00:00Z,26.4645,-82.1044,4.2,11111222 
SCCF RECON,ioos:station:SCCF:56:1,2019-10-05T20:00:00Z,26.4645,-82.1044,3.97,11111222 
SCCF RECON,ioos:station:SCCF:56:1,2019-10-05T21:00:00Z,26.4645,-82.1044,3.89,11111222 
SCCF RECON,ioos:station:SCCF:56:1,2019-10-05T22:00:00Z,26.4645,-82.1044,3.52,11111222 
SCCF RECON,ioos:station:SCCF:56:1,2019-10-05T23:00:00Z,26.4645,-82.1044,3.77,11111222 
SCCF RECON,ioos:station:SCCF:56:1,2019-10-06T04:00:00Z,26.4645,-82.1044,2.62,11111222 
SCCF RECON,ioos:station:SCCF:56:1,2019-10-06T05:00:00Z,26.4645,-82.1044,2.78,11111222 
SCCF RECON,ioos:station:SCCF:56:1,2019-10-06T06:00:00Z,26.4645,-82.1044,2.38,11111222 
SCCF RECON,ioos:station:SCCF:56:1,2019-10-06T07:00:00Z,26.4645,-82.1044,2.83,11111222 
SCCF RECON,ioos:station:SCCF:56:1,2019-10-06T08:00:00Z,26.4645,-82.1044,2.46,11111222 
SCCF RECON,ioos:station:SCCF:56:1,2019-10-06T09:00:00Z,26.4645,-82.1044,2.77,11111222 
SCCF RECON,ioos:station:SCCF:56:1,2019-10-06T10:00:00Z,26.4645,-82.1044,2.43,11111222 
SCCF RECON,ioos:station:SCCF:56:1,2019-10-06T11:00:00Z,26.4645,-82.1044,2.4,11111222 
SCCF RECON,ioos:station:SCCF:56:1,2019-10-06T12:00:00Z,26.4645,-82.1044,2.42,11111222 
SCCF RECON,ioos:station:SCCF:56:1,2019-10-06T13:00:00Z,26.4645,-82.1044,2.63,11111222 
SCCF RECON,ioos:station:SCCF:56:1,2019-10-06T14:00:00Z,26.4645,-82.1044,2.53,11111222 
SCCF RECON,ioos:station:SCCF:56:1,2019-10-06T15:00:00Z,26.4645,-82.1044,2.74,11111222 
SCCF RECON,ioos:station:SCCF:56:1,2019-10-06T16:00:00Z,26.4645,-82.1044,2.44,11111222 
SCCF RECON,ioos:station:SCCF:56:1,2019-10-06T17:00:00Z,26.4645,-82.1044,2.76,11111222 
SCCF RECON,ioos:station:SCCF:56:1,2019-10-06T18:00:00Z,26.4645,-82.1044,2.75,11111222 
SCCF RECON,ioos:station:SCCF:56:1,2019-10-06T19:00:00Z,26.4645,-82.1044,3.77,11111222 
SCCF RECON,ioos:station:SCCF:56:1,2019-10-06T20:00:00Z,26.4645,-82.1044,3.81,11111222 
SCCF RECON,ioos:station:SCCF:56:1,2019-10-06T21:00:00Z,26.4645,-82.1044,3.94,11111222 
SCCF RECON,ioos:station:SCCF:56:1,2019-10-06T22:00:00Z,26.4645,-82.1044,3.16,11111222 
SCCF RECON,ioos:station:SCCF:56:1,2019-10-06T23:00:00Z,26.4645,-82.1044,4.36,11111222 
SCCF RECON,ioos:station:SCCF:56:1,2019-10-07T04:00:00Z,26.4645,-82.1044,4.22,11111222 
SCCF RECON,ioos:station:SCCF:56:1,2019-10-07T05:00:00Z,26.4645,-82.1044,3.51,11111222 
SCCF RECON,ioos:station:SCCF:56:1,2019-10-07T06:00:00Z,26.4645,-82.1044,3.3,11111222 
SCCF RECON,ioos:station:SCCF:56:1,2019-10-07T08:00:00Z,26.4645,-82.1044,3.39,11111222 
SCCF RECON,ioos:station:SCCF:56:1,2019-10-07T09:00:00Z,26.4645,-82.1044,3.21,11111222 
SCCF RECON,ioos:station:SCCF:56:1,2019-10-07T10:00:00Z,26.4645,-82.1044,2.83,11111222 
SCCF RECON,ioos:station:SCCF:56:1,2019-10-07T11:00:00Z,26.4645,-82.1044,3.02,11111222 
SCCF RECON,ioos:station:SCCF:56:1,2019-10-07T12:00:00Z,26.4645,-82.1044,3.02,11111222 
SCCF RECON,ioos:station:SCCF:56:1,2019-10-07T13:00:00Z,26.4645,-82.1044,2.94,11111222 
SCCF RECON,ioos:station:SCCF:56:1,2019-10-07T15:00:00Z,26.4645,-82.1044,3.11,11111222 
SCCF RECON,ioos:station:SCCF:56:1,2019-10-07T16:00:00Z,26.4645,-82.1044,2.98,11111222 
SCCF RECON,ioos:station:SCCF:56:1,2019-10-07T17:00:00Z,26.4645,-82.1044,3.17,11111222 
SCCF RECON,ioos:station:SCCF:56:1,2019-10-07T18:00:00Z,26.4645,-82.1044,2.83,11111222 
SCCF RECON,ioos:station:SCCF:56:1,2019-10-07T19:00:00Z,26.4645,-82.1044,3.33,11111222 
SCCF RECON,ioos:station:SCCF:56:1,2019-10-07T20:00:00Z,26.4645,-82.1044,3.75,11111222 
SCCF RECON,ioos:station:SCCF:56:1,2019-10-07T21:00:00Z,26.4645,-82.1044,4.8,11111222 
SCCF RECON,ioos:station:SCCF:56:1,2019-10-07T22:00:00Z,26.4645,-82.1044,4.81,11111222 
SCCF RECON,ioos:station:SCCF:56:1,2019-10-07T23:00:00Z,26.4645,-82.1044,4.31,11111222 
SCCF RECON,ioos:station:SCCF:56:1,2019-10-08T04:00:00Z,26.4645,-82.1044,2.7,11111222 
SCCF RECON,ioos:station:SCCF:56:1,2019-10-08T05:00:00Z,26.4645,-82.1044,2.71,11111222 
SCCF RECON,ioos:station:SCCF:56:1,2019-10-08T06:00:00Z,26.4645,-82.1044,2.49,11111222 
SCCF RECON,ioos:station:SCCF:56:1,2019-10-08T07:00:00Z,26.4645,-82.1044,2.77,11111222 
SCCF RECON,ioos:station:SCCF:56:1,2019-10-08T08:00:00Z,26.4645,-82.1044,3.95,11111222 
SCCF RECON,ioos:station:SCCF:56:1,2019-10-08T09:00:00Z,26.4645,-82.1044,2.79,11111222 
SCCF RECON,ioos:station:SCCF:56:1,2019-10-08T10:00:00Z,26.4645,-82.1044,3.58,11111222 
SCCF RECON,ioos:station:SCCF:56:1,2019-10-08T11:00:00Z,26.4645,-82.1044,3.53,11111222 
SCCF RECON,ioos:station:SCCF:56:1,2019-10-08T12:00:00Z,26.4645,-82.1044,3.63,11111222 
SCCF RECON,ioos:station:SCCF:56:1,2019-10-08T13:00:00Z,26.4645,-82.1044,3.36,11111222 
SCCF RECON,ioos:station:SCCF:56:1,2019-10-08T14:00:00Z,26.4645,-82.1044,3.38,11111222 
SCCF RECON,ioos:station:SCCF:56:1,2019-10-08T15:00:00Z,26.4645,-82.1044,3.93,11111222 
SCCF RECON,ioos:station:SCCF:56:1,2019-10-08T16:00:00Z,26.4645,-82.1044,3.65,11111222 
SCCF RECON,ioos:station:SCCF:56:1,2019-10-08T17:00:00Z,26.4645,-82.1044,3.9,11111222 
SCCF RECON,ioos:station:SCCF:56:1,2019-10-08T18:00:00Z,26.4645,-82.1044,4.11,11111222 
SCCF RECON,ioos:station:SCCF:56:1,2019-10-08T19:00:00Z,26.4645,-82.1044,3.99,11111222 
SCCF RECON,ioos:station:SCCF:56:1,2019-10-08T20:00:00Z,26.4645,-82.1044,4.31,11111222 
SCCF RECON,ioos:station:SCCF:56:1,2019-10-08T21:00:00Z,26.4645,-82.1044,4.72,11111222 
SCCF RECON,ioos:station:SCCF:56:1,2019-10-08T22:00:00Z,26.4645,-82.1044,5.22,11111222 
SCCF RECON,ioos:station:SCCF:56:1,2019-10-08T23:00:00Z,26.4645,-82.1044,5.6,11111222 
SCCF RECON,ioos:station:SCCF:56:1,2019-10-09T04:00:00Z,26.4645,-82.1044,3.55,11111222 
SCCF RECON,ioos:station:SCCF:56:1,2019-10-09T05:00:00Z,26.4645,-82.1044,2.89,11111222 
SCCF RECON,ioos:station:SCCF:56:1,2019-10-09T06:00:00Z,26.4645,-82.1044,3.06,11111222 
SCCF RECON,ioos:station:SCCF:56:1,2019-10-09T07:00:00Z,26.4645,-82.1044,3.71,11111222 
SCCF RECON,ioos:station:SCCF:56:1,2019-10-09T08:00:00Z,26.4645,-82.1044,3.87,11111222 
SCCF RECON,ioos:station:SCCF:56:1,2019-10-09T09:00:00Z,26.4645,-82.1044,3.47,11111222 
SCCF RECON,ioos:station:SCCF:56:1,2019-10-09T10:00:00Z,26.4645,-82.1044,2.27,11111222 
SCCF RECON,ioos:station:SCCF:56:1,2019-10-09T11:00:00Z,26.4645,-82.1044,3.31,11111222 
SCCF RECON,ioos:station:SCCF:56:1,2019-10-09T12:00:00Z,26.4645,-82.1044,3.79,11111222 
SCCF RECON,ioos:station:SCCF:56:1,2019-10-09T13:00:00Z,26.4645,-82.1044,3.88,11111222 
SCCF RECON,ioos:station:SCCF:56:1,2019-10-09T14:00:00Z,26.4645,-82.1044,3.83,11111222 
SCCF RECON,ioos:station:SCCF:56:1,2019-10-09T15:00:00Z,26.4645,-82.1044,3.71,11111222 
SCCF RECON,ioos:station:SCCF:56:1,2019-10-09T16:00:00Z,26.4645,-82.1044,3.83,11111222 
SCCF RECON,ioos:station:SCCF:56:1,2019-10-09T17:00:00Z,26.4645,-82.1044,3.44,11111222 
SCCF RECON,ioos:station:SCCF:56:1,2019-10-09T18:00:00Z,26.4645,-82.1044,3.96,11111222 
SCCF RECON,ioos:station:SCCF:56:1,2019-10-09T19:00:00Z,26.4645,-82.1044,4.29,11111222 
SCCF RECON,ioos:station:SCCF:56:1,2019-10-09T20:00:00Z,26.4645,-82.1044,4.12,11111222 
SCCF RECON,ioos:station:SCCF:56:1,2019-10-09T21:00:00Z,26.4645,-82.1044,4.64,11111222 
SCCF RECON,ioos:station:SCCF:56:1,2019-10-09T22:00:00Z,26.4645,-82.1044,5.09,11111222 
SCCF RECON,ioos:station:SCCF:56:1,2019-10-09T23:00:00Z,26.4645,-82.1044,5.35,11111222 
SCCF RECON,ioos:station:SCCF:56:1,2019-10-10T04:00:00Z,26.4645,-82.1044,3.31,11111222 
SCCF RECON,ioos:station:SCCF:56:1,2019-10-10T05:00:00Z,26.4645,-82.1044,3.73,11111222 
SCCF RECON,ioos:station:SCCF:56:1,2019-10-10T06:00:00Z,26.4645,-82.1044,3.54,11111222 
SCCF RECON,ioos:station:SCCF:56:1,2019-10-10T07:00:00Z,26.4645,-82.1044,3.83,11111222 
SCCF RECON,ioos:station:SCCF:56:1,2019-10-10T08:00:00Z,26.4645,-82.1044,3.85,11111222 
SCCF RECON,ioos:station:SCCF:56:1,2019-10-10T09:00:00Z,26.4645,-82.1044,3.45,11111222 
SCCF RECON,ioos:station:SCCF:56:1,2019-10-10T10:00:00Z,26.4645,-82.1044,3.57,11111222 
SCCF RECON,ioos:station:SCCF:56:1,2019-10-10T11:00:00Z,26.4645,-82.1044,3.59,11111222 
SCCF RECON,ioos:station:SCCF:56:1,2019-10-10T12:00:00Z,26.4645,-82.1044,4.07,11111222 
SCCF RECON,ioos:station:SCCF:56:1,2019-10-10T13:00:00Z,26.4645,-82.1044,4.13,11111222 
SCCF RECON,ioos:station:SCCF:56:1,2019-10-10T14:00:00Z,26.4645,-82.1044,3.9,11111222 
SCCF RECON,ioos:station:SCCF:56:1,2019-10-10T15:00:00Z,26.4645,-82.1044,3.61,11111222 
SCCF RECON,ioos:station:SCCF:56:1,2019-10-10T16:00:00Z,26.4645,-82.1044,4.13,11111222 
SCCF RECON,ioos:station:SCCF:56:1,2019-10-10T17:00:00Z,26.4645,-82.1044,4.09,11111222 
SCCF RECON,ioos:station:SCCF:56:1,2019-10-10T18:00:00Z,26.4645,-82.1044,4.48,11111222 
SCCF RECON,ioos:station:SCCF:56:1,2019-10-10T19:00:00Z,26.4645,-82.1044,4.75,11111222 
SCCF RECON,ioos:station:SCCF:56:1,2019-10-10T20:00:00Z,26.4645,-82.1044,4.6,11111222 
SCCF RECON,ioos:station:SCCF:56:1,2019-10-10T21:00:00Z,26.4645,-82.1044,5.0,11111222 
SCCF RECON,ioos:station:SCCF:56:1,2019-10-10T22:00:00Z,26.4645,-82.1044,5.3,11111222 
SCCF RECON,ioos:station:SCCF:56:1,2019-10-10T23:00:00Z,26.4645,-82.1044,5.64,11111222 
SCCF RECON,ioos:station:SCCF:56:1,2019-10-11T04:00:00Z,26.4645,-82.1044,1.73,11113222 
SCCF RECON,ioos:station:SCCF:56:1,2019-10-11T05:00:00Z,26.4645,-82.1044,1.94,11113222 
SCCF RECON,ioos:station:SCCF:56:1,2019-10-11T06:00:00Z,26.4645,-82.1044,2.47,11111222 
SCCF RECON,ioos:station:SCCF:56:1,2019-10-11T07:00:00Z,26.4645,-82.1044,2.74,11111222 
SCCF RECON,ioos:station:SCCF:56:1,2019-10-11T08:00:00Z,26.4645,-82.1044,2.32,11111222 
SCCF RECON,ioos:station:SCCF:56:1,2019-10-11T09:00:00Z,26.4645,-82.1044,3.93,11111222 
SCCF RECON,ioos:station:SCCF:56:1,2019-10-11T10:00:00Z,26.4645,-82.1044,3.03,11111222 
SCCF RECON,ioos:station:SCCF:56:1,2019-10-11T11:00:00Z,26.4645,-82.1044,3.83,11111222 
SCCF RECON,ioos:station:SCCF:56:1,2019-10-11T12:00:00Z,26.4645,-82.1044,4.12,11111222 
SCCF RECON,ioos:station:SCCF:56:1,2019-10-11T13:00:00Z,26.4645,-82.1044,4.06,11111222 
SCCF RECON,ioos:station:SCCF:56:1,2019-10-11T14:00:00Z,26.4645,-82.1044,4.25,11111222 
SCCF RECON,ioos:station:SCCF:56:1,2019-10-11T15:00:00Z,26.4645,-82.1044,3.77,11111222 
SCCF RECON,ioos:station:SCCF:56:1,2019-10-11T16:00:00Z,26.4645,-82.1044,4.25,11111222 
SCCF RECON,ioos:station:SCCF:56:1,2019-10-11T17:00:00Z,26.4645,-82.1044,3.95,11111222 
SCCF RECON,ioos:station:SCCF:56:1,2019-10-11T18:00:00Z,26.4645,-82.1044,4.09,11111222 
SCCF RECON,ioos:station:SCCF:56:1,2019-10-11T19:00:00Z,26.4645,-82.1044,5.0,11111222 
SCCF RECON,ioos:station:SCCF:56:1,2019-10-11T20:00:00Z,26.4645,-82.1044,5.15,11111222 
SCCF RECON,ioos:station:SCCF:56:1,2019-10-11T21:00:00Z,26.4645,-82.1044,5.25,11111222 
SCCF RECON,ioos:station:SCCF:56:1,2019-10-11T22:00:00Z,26.4645,-82.1044,5.68,11111222 
SCCF RECON,ioos:station:SCCF:56:1,2019-10-11T23:00:00Z,26.4645,-82.1044,5.93,11111222 
SCCF RECON,ioos:station:SCCF:56:1,2019-10-12T04:00:00Z,26.4645,-82.1044,2.93,11111222 
SCCF RECON,ioos:station:SCCF:56:1,2019-10-12T05:00:00Z,26.4645,-82.1044,2.95,11111222 
SCCF RECON,ioos:station:SCCF:56:1,2019-10-12T06:00:00Z,26.4645,-82.1044,2.91,11111222 
SCCF RECON,ioos:station:SCCF:56:1,2019-10-12T07:00:00Z,26.4645,-82.1044,3.38,11111222 
SCCF RECON,ioos:station:SCCF:56:1,2019-10-12T08:00:00Z,26.4645,-82.1044,3.29,11111222 
SCCF RECON,ioos:station:SCCF:56:1,2019-10-12T09:00:00Z,26.4645,-82.1044,3.57,11111222 
SCCF RECON,ioos:station:SCCF:56:1,2019-10-12T10:00:00Z,26.4645,-82.1044,3.62,11111222 
SCCF RECON,ioos:station:SCCF:56:1,2019-10-12T11:00:00Z,26.4645,-82.1044,3.53,11111222 
SCCF RECON,ioos:station:SCCF:56:1,2019-10-12T12:00:00Z,26.4645,-82.1044,3.9,11111222 
SCCF RECON,ioos:station:SCCF:56:1,2019-10-12T13:00:00Z,26.4645,-82.1044,3.8,11111222 
SCCF RECON,ioos:station:SCCF:56:1,2019-10-12T14:00:00Z,26.4645,-82.1044,3.62,11111222 
SCCF RECON,ioos:station:SCCF:56:1,2019-10-12T15:00:00Z,26.4645,-82.1044,3.74,11111222 
SCCF RECON,ioos:station:SCCF:56:1,2019-10-12T16:00:00Z,26.4645,-82.1044,3.82,11111222 
SCCF RECON,ioos:station:SCCF:56:1,2019-10-12T17:00:00Z,26.4645,-82.1044,3.78,11111222 
SCCF RECON,ioos:station:SCCF:56:1,2019-10-12T18:00:00Z,26.4645,-82.1044,4.42,11111222 
SCCF RECON,ioos:station:SCCF:56:1,2019-10-12T19:00:00Z,26.4645,-82.1044,4.45,11111222 
SCCF RECON,ioos:station:SCCF:56:1,2019-10-12T20:00:00Z,26.4645,-82.1044,4.72,11111222 
SCCF RECON,ioos:station:SCCF:56:1,2019-10-12T21:00:00Z,26.4645,-82.1044,4.81,11111222 
SCCF RECON,ioos:station:SCCF:56:1,2019-10-12T22:00:00Z,26.4645,-82.1044,5.15,11111222 
SCCF RECON,ioos:station:SCCF:56:1,2019-10-12T23:00:00Z,26.4645,-82.1044,5.1,11111222 
SCCF RECON,ioos:station:SCCF:56:1,2019-10-13T04:00:00Z,26.4645,-82.1044,2.99,11111222 
SCCF RECON,ioos:station:SCCF:56:1,2019-10-13T05:00:00Z,26.4645,-82.1044,2.89,11111222 
SCCF RECON,ioos:station:SCCF:56:1,2019-10-13T06:00:00Z,26.4645,-82.1044,2.72,11111222 
SCCF RECON,ioos:station:SCCF:56:1,2019-10-13T07:00:00Z,26.4645,-82.1044,3.85,11111222 
SCCF RECON,ioos:station:SCCF:56:1,2019-10-13T08:00:00Z,26.4645,-82.1044,3.46,11111222 
SCCF RECON,ioos:station:SCCF:56:1,2019-10-13T09:00:00Z,26.4645,-82.1044,3.49,11111222 
SCCF RECON,ioos:station:SCCF:56:1,2019-10-13T10:00:00Z,26.4645,-82.1044,3.57,11111222 
SCCF RECON,ioos:station:SCCF:56:1,2019-10-13T11:00:00Z,26.4645,-82.1044,3.58,11111222 
SCCF RECON,ioos:station:SCCF:56:1,2019-10-13T12:00:00Z,26.4645,-82.1044,3.63,11111222 
SCCF RECON,ioos:station:SCCF:56:1,2019-10-13T13:00:00Z,26.4645,-82.1044,3.38,11111222 
SCCF RECON,ioos:station:SCCF:56:1,2019-10-13T14:00:00Z,26.4645,-82.1044,3.85,11111222 
SCCF RECON,ioos:station:SCCF:56:1,2019-10-13T15:00:00Z,26.4645,-82.1044,3.01,11111222 
SCCF RECON,ioos:station:SCCF:56:1,2019-10-13T16:00:00Z,26.4645,-82.1044,3.27,11111222 
SCCF RECON,ioos:station:SCCF:56:1,2019-10-13T17:00:00Z,26.4645,-82.1044,2.67,11111222 
SCCF RECON,ioos:station:SCCF:56:1,2019-10-13T18:00:00Z,26.4645,-82.1044,2.89,11111222 
SCCF RECON,ioos:station:SCCF:56:1,2019-10-13T19:00:00Z,26.4645,-82.1044,2.96,11111222 
SCCF RECON,ioos:station:SCCF:56:1,2019-10-13T20:00:00Z,26.4645,-82.1044,3.27,11111222 
SCCF RECON,ioos:station:SCCF:56:1,2019-10-13T21:00:00Z,26.4645,-82.1044,4.04,11111222 
SCCF RECON,ioos:station:SCCF:56:1,2019-10-13T22:00:00Z,26.4645,-82.1044,4.43,11111222 
SCCF RECON,ioos:station:SCCF:56:1,2019-10-13T23:00:00Z,26.4645,-82.1044,4.38,11111222 
SCCF RECON,ioos:station:SCCF:56:1,2019-10-14T04:00:00Z,26.4645,-82.1044,0.51,11113222 
SCCF RECON,ioos:station:SCCF:56:1,2019-10-14T05:00:00Z,26.4645,-82.1044,0.5,11113222 
SCCF RECON,ioos:station:SCCF:56:1,2019-10-14T06:00:00Z,26.4645,-82.1044,0.49,11113222 
SCCF RECON,ioos:station:SCCF:56:1,2019-10-14T07:00:00Z,26.4645,-82.1044,1.22,11113222 
SCCF RECON,ioos:station:SCCF:56:1,2019-10-14T08:00:00Z,26.4645,-82.1044,1.42,11113222 
SCCF RECON,ioos:station:SCCF:56:1,2019-10-14T09:00:00Z,26.4645,-82.1044,2.02,11111222 
SCCF RECON,ioos:station:SCCF:56:1,2019-10-14T10:00:00Z,26.4645,-82.1044,1.48,11113222 
SCCF RECON,ioos:station:SCCF:56:1,2019-10-14T11:00:00Z,26.4645,-82.1044,0.45,11113222 
SCCF RECON,ioos:station:SCCF:56:1,2019-10-14T12:00:00Z,26.4645,-82.1044,0.46,11113222 
SCCF RECON,ioos:station:SCCF:56:1,2019-10-14T13:00:00Z,26.4645,-82.1044,0.53,11113222 
SCCF RECON,ioos:station:SCCF:56:1,2019-10-14T14:00:00Z,26.4645,-82.1044,0.54,11113222 
SCCF RECON,ioos:station:SCCF:56:1,2019-10-14T15:00:00Z,26.4645,-82.1044,0.57,11113222 
SCCF RECON,ioos:station:SCCF:56:1,2019-10-14T16:00:00Z,26.4645,-82.1044,0.55,11113222 
SCCF RECON,ioos:station:SCCF:56:1,2019-10-14T17:00:00Z,26.4645,-82.1044,0.58,11113222 
SCCF RECON,ioos:station:SCCF:56:1,2019-10-14T18:00:00Z,26.4645,-82.1044,0.58,11113222 
SCCF RECON,ioos:station:SCCF:56:1,2019-10-14T19:00:00Z,26.4645,-82.1044,0.6,11113222 
SCCF RECON,ioos:station:SCCF:56:1,2019-10-14T20:00:00Z,26.4645,-82.1044,0.62,11113222 